Location: McLaughlin
(0.0000°N, 0.0000°E)
Time: 02:45:23
(UTC+00:00)

Hubble Space Telescope - Pass Details

Date: 28 June 2019
Orbit: 536 x 540 km, 28.5° (Epoch: 22 July)

Event Time Altitude Azimuth Distance (km) Brightness Sun altitude
Exits shadow 05:27:38 10° 233° (SW) 1,816 2.8 -8.2°
Reaches altitude 10° 05:27:52 10° 230° (SW) 1,779 2.8 -8.1°
Maximum altitude 05:29:26 12° 207° (SSW) 1,662 2.8 -7.7°
Drops below altitude 10° 05:31:01 10° 184° (S) 1,780 3.2 -7.4°
Sets 05:34:38 0° 152° (SSE) 2,672 4.4 -6.6°
